Voltar ao catálogo

STARLINK-31836

AtivoComunicaçõesVLEO
NORAD 59724·PAYLOAD·🇺🇸 United States

Lançado May 10, 2024 de Vandenberg Space Force Base

Loading…

Próximas Passagens (próximas 24 horas)

TLE

AtualizadoSource: CelesTrak SupGP

Época: Sep 15, 2026, 03:02 UTC

1 59724C 24088S   26258.12687500  .00064531  00000+0  20746-2 0  2588
2 59724  53.1588 338.5804 0001078  92.2756 345.0465 15.31677764    12

Acompanhe STARLINK-31836 em tempo real com AllMySat

Download on the App Store